This demonstration page uses our WeatherBlox Daily Observations layout. Learn more.

Left ArrowRight Arrow

31.84235, -102.49876

Hourly Observations for March 1, 2022

Temp ( °F °C ) Dew Point ( °F °C ) Humidity (%) Winds ( mph kmh ) Pressure ( in mb ) Visibility ( mi km ) Precip ( " mm )
12:53 am 00:53 Clear 50 10 17 -8.3 27 27 SSE 7 11 30.12 1020 10 16 0.00 0.00
1:53 am 01:53 Clear 51 10.6 18 -7.8 27 27 S 7 11 30.11 1020 10 16 0.00 0.00
2:53 am 02:53 Clear 49 9.4 18 -7.8 29 29 Calm 30.10 1019 10 16 0.00 0.00
3:53 am 03:53 Clear 47 8.3 18 -7.8 31 31 Calm 30.09 1019 10 16 0.00 0.00
4:53 am 04:53 Clear 45 7.2 18 -7.8 34 34 Calm 30.11 1020 10 16 0.00 0.00
5:53 am 05:53 Clear 42 5.6 17 -8.3 36 36 ENE 7 11 30.11 1020 10 16 0.00 0.00
6:53 am 06:53 Clear 41 5 16 -8.9 36 36 ENE 7 11 30.13 1020 10 16 0.00 0.00
7:53 am 07:53 Sunny 44 6.7 17 -8.3 34 34 NE 7 11 30.15 1021 9 14 0.00 0.00
8:53 am 08:53 Sunny 48 8.9 18 -7.8 30 30 NE 5 7 30.16 1021 10 16 0.00 0.00
9:53 am 09:53 Sunny 54 12.2 19 -7.2 25 25 ENE 3 6 30.17 1022 10 16 0.00 0.00
10:53 am 10:53 Sunny 56 13.3 19 -7.2 24 24 SE 5 7 30.16 1021 10 16 0.00 0.00
11:53 am 11:53 Sunny 59 15 19 -7.2 21 21 SSE 6 9 30.16 1022 10 16 0.00 0.00
12:53 pm 12:53 Sunny 61 16.1 19 -7.2 20 20 Calm 30.14 1021 10 16 0.00 0.00
1:53 pm 13:53 Sunny 63 17.2 18 -7.8 17 17 SE 5 7 30.10 1019 10 16 0.00 0.00
2:53 pm 14:53 Sunny 64 17.8 18 -7.8 17 17 SE 3 6 30.08 1019 10 16 0.00 0.00
3:53 pm 15:53 Sunny 65 18.3 17 -8.3 16 16 ESE 6 9 30.07 1018 10 16 0.00 0.00
4:53 pm 16:53 Sunny 66 18.9 17 -8.3 15 15 ESE 8 13 30.06 1018 10 16 0.00 0.00
5:53 pm 17:53 Sunny 65 18.3 16 -8.9 15 15 ESE 6 9 30.06 1018 10 16 0.00 0.00
6:53 pm 18:53 Clear 61 16.1 17 -8.3 18 18 E 7 11 30.08 1019 10 16 0.00 0.00
7:53 pm 19:53 Clear 57 13.9 16 -8.9 20 20 ENE 8 13 30.10 1019 10 16 0.00 0.00
8:53 pm 20:53 Clear 56 13.3 17 -8.3 22 22 E 10 17 30.11 1020 10 16 0.00 0.00
9:53 pm 21:53 Clear 52 11.1 17 -8.3 25 25 E 9 15 30.13 1020 10 16 0.00 0.00
10:53 pm 22:53 Clear 54 12.2 18 -7.8 24 24 SE 9 15 30.12 1020 10 16 0.00 0.00
11:53 pm 23:53 Clear 49 9.4 18 -7.8 29 29 ESE 6 9 30.12 1020 10 16 0.00 0.00

Powered by AerisWeather